PLF043 EKKA-EPKK

Flight info

Callsign PLF043
Flight time N/A
Altitude 19000
Route INTET T55 LUTUS M602 BINKA DCT VABAT DCT UWLER
Aircraft C295/M-SDFGIRY/S

Departure

Time 2026-05-05 09:13
Airport Midtjyllands Airport / Air Base Karup (EKKA)

Arrival

Time N/A
Airport Kraków John Paul II International Airport (EPKK)
Time Latitude Longitude Altitude Speed Heading
2026-05-05 08:59 56.31100 9.11844 165 ft 0 kts 333°
2026-05-05 09:08 56.31101 9.11842 173 ft 0 kts 323°
2026-05-05 09:08 56.31101 9.11838 173 ft 0 kts 298°
2026-05-05 09:08 56.31101 9.11832 173 ft 0 kts 275°
2026-05-05 09:08 56.31099 9.11820 173 ft 2 kts 254°
2026-05-05 09:09 56.31082 9.11791 173 ft 5 kts 214°
2026-05-05 09:09 56.31034 9.11761 173 ft 9 kts 180°
2026-05-05 09:09 56.30959 9.11811 173 ft 14 kts 155°
2026-05-05 09:09 56.30866 9.11907 173 ft 17 kts 147°
2026-05-05 09:10 56.30767 9.12013 173 ft 17 kts 152°
2026-05-05 09:10 56.30666 9.12114 173 ft 17 kts 151°
2026-05-05 09:10 56.30564 9.12221 174 ft 17 kts 148°
2026-05-05 09:10 56.30465 9.12333 174 ft 17 kts 148°
2026-05-05 09:11 56.30367 9.12436 175 ft 16 kts 150°
2026-05-05 09:11 56.30263 9.12510 175 ft 16 kts 171°
2026-05-05 09:11 56.30157 9.12539 176 ft 15 kts 169°
2026-05-05 09:11 56.30053 9.12577 176 ft 15 kts 168°
2026-05-05 09:12 56.29950 9.12613 176 ft 15 kts 170°
2026-05-05 09:12 56.29846 9.12643 176 ft 15 kts 171°
2026-05-05 09:12 56.29747 9.12644 175 ft 14 kts 223°
2026-05-05 09:12 56.29746 9.12500 173 ft 10 kts 272°
2026-05-05 09:13 56.29751 9.12001 172 ft 71 kts 271°
2026-05-05 09:13 56.29747 9.10798 170 ft 119 kts 268°
2026-05-05 09:13 56.29735 9.09195 442 ft 131 kts 271°
2026-05-05 09:13 56.29690 9.07467 822 ft 148 kts 269°
2026-05-05 09:14 56.29360 9.05723 1385 ft 152 kts 228°
2026-05-05 09:14 56.28387 9.04780 1608 ft 169 kts 197°
2026-05-05 09:14 56.27230 9.04553 2134 ft 171 kts 175°
2026-05-05 09:14 56.26193 9.05610 2511 ft 175 kts 127°
2026-05-05 09:15 56.25795 9.07626 2845 ft 175 kts 97°
2026-05-05 09:15 56.25751 9.09740 3363 ft 165 kts 75°
2026-05-05 09:15 56.25944 9.11748 3829 ft 162 kts 76°
2026-05-05 09:15 56.26095 9.13747 4234 ft 165 kts 83°
2026-05-05 09:16 56.26132 9.15953 4361 ft 186 kts 88°
2026-05-05 09:16 56.26035 9.18294 4743 ft 189 kts 94°
2026-05-05 09:16 56.25809 9.20624 5130 ft 190 kts 100°
2026-05-05 09:16 56.25488 9.22945 5485 ft 193 kts 103°
2026-05-05 09:17 56.25121 9.25280 5828 ft 194 kts 103°
2026-05-05 09:17 56.24754 9.27628 6208 ft 195 kts 104°
2026-05-05 09:17 56.24383 9.29985 6559 ft 197 kts 104°
2026-05-05 09:17 56.24019 9.32376 6872 ft 199 kts 104°
2026-05-05 09:18 56.23643 9.34755 7252 ft 202 kts 105°
2026-05-05 09:18 56.23268 9.37191 7569 ft 203 kts 105°
2026-05-05 09:18 56.22894 9.39660 7889 ft 205 kts 106°
2026-05-05 09:18 56.22467 9.42120 8244 ft 208 kts 110°
2026-05-05 09:19 56.21966 9.44569 8579 ft 210 kts 114°
2026-05-05 09:19 56.21424 9.47022 8886 ft 212 kts 114°
2026-05-05 09:19 56.20888 9.49501 9222 ft 214 kts 114°
2026-05-05 09:19 56.20347 9.51999 9531 ft 216 kts 114°
2026-05-05 09:20 56.19804 9.54524 9831 ft 218 kts 114°
2026-05-05 09:20 56.19255 9.57073 10112 ft 219 kts 114°
2026-05-05 09:20 56.18706 9.59633 10376 ft 221 kts 115°
2026-05-05 09:20 56.18153 9.62213 10645 ft 222 kts 115°
2026-05-05 09:21 56.17593 9.64812 10916 ft 224 kts 115°
2026-05-05 09:21 56.17033 9.67426 11177 ft 225 kts 115°
2026-05-05 09:21 56.16464 9.70060 11458 ft 226 kts 115°
2026-05-05 09:21 56.15896 9.72700 11705 ft 227 kts 115°
2026-05-05 09:22 56.15328 9.75326 11968 ft 229 kts 115°
2026-05-05 09:22 56.14753 9.77990 12230 ft 230 kts 115°
2026-05-05 09:22 56.14169 9.80683 12491 ft 231 kts 115°
2026-05-05 09:22 56.13585 9.83376 12747 ft 233 kts 115°
2026-05-05 09:23 56.12997 9.86088 13005 ft 234 kts 115°
2026-05-05 09:23 56.12404 9.88810 13257 ft 235 kts 115°
2026-05-05 09:23 56.11808 9.91556 13500 ft 236 kts 115°
2026-05-05 09:23 56.11218 9.94258 13731 ft 237 kts 116°
2026-05-05 09:24 56.10618 9.97015 13951 ft 238 kts 116°
2026-05-05 09:24 56.09844 9.99561 14113 ft 229 kts 140°
2026-05-05 09:24 56.08668 10.01452 14316 ft 225 kts 150°
2026-05-05 09:24 56.07399 10.03080 14530 ft 224 kts 154°
2026-05-05 09:25 56.06105 10.04635 14743 ft 224 kts 154°
2026-05-05 09:25 56.04808 10.06200 14944 ft 225 kts 154°
2026-05-05 09:25 56.03518 10.07792 15149 ft 226 kts 153°
2026-05-05 09:25 56.02232 10.09419 15367 ft 227 kts 152°
2026-05-05 09:26 56.00948 10.11068 15584 ft 227 kts 153°
2026-05-05 09:26 55.99660 10.12711 15787 ft 228 kts 153°
2026-05-05 09:26 55.98368 10.14360 15983 ft 228 kts 153°
2026-05-05 09:26 55.97075 10.16012 16192 ft 229 kts 153°
2026-05-05 09:27 55.95777 10.17674 16385 ft 230 kts 153°
2026-05-05 09:27 55.94477 10.19331 16566 ft 230 kts 153°
2026-05-05 09:27 55.93185 10.20975 16773 ft 231 kts 153°
2026-05-05 09:27 55.91877 10.22644 16972 ft 231 kts 153°
2026-05-05 09:28 55.90565 10.24321 17176 ft 232 kts 153°
2026-05-05 09:28 55.89251 10.25990 17342 ft 232 kts 153°
2026-05-05 09:28 55.87933 10.27660 17505 ft 232 kts 153°
2026-05-05 09:28 55.86631 10.29311 17658 ft 233 kts 153°
2026-05-05 09:29 55.85311 10.30985 17809 ft 233 kts 153°
2026-05-05 09:29 55.83988 10.32664 17963 ft 234 kts 153°
2026-05-05 09:29 55.82660 10.34345 18106 ft 234 kts 153°
2026-05-05 09:29 55.81332 10.36025 18255 ft 234 kts 153°
2026-05-05 09:30 55.79998 10.37712 18382 ft 235 kts 153°
2026-05-05 09:30 55.78667 10.39394 18497 ft 235 kts 153°
2026-05-05 09:30 55.77330 10.41081 18623 ft 235 kts 153°
2026-05-05 09:30 55.75997 10.42766 18740 ft 235 kts 153°
2026-05-05 09:31 55.74678 10.44426 18856 ft 236 kts 153°
2026-05-05 09:31 55.73332 10.46119 18916 ft 239 kts 153°
2026-05-05 09:31 55.71964 10.47840 18940 ft 243 kts 152°
2026-05-05 09:31 55.70571 10.49590 18957 ft 247 kts 152°
2026-05-05 09:32 55.69156 10.51369 18965 ft 251 kts 152°
2026-05-05 09:32 55.67723 10.53168 18965 ft 254 kts 152°
2026-05-05 09:32 55.66272 10.54985 18970 ft 257 kts 152°
2026-05-05 09:32 55.64807 10.56822 18973 ft 260 kts 152°
2026-05-05 09:33 55.63326 10.58674 18971 ft 262 kts 152°
2026-05-05 09:33 55.61827 10.60548 18954 ft 264 kts 152°
2026-05-05 09:33 55.60316 10.62427 18939 ft 266 kts 152°
2026-05-05 09:33 55.58799 10.64316 18937 ft 267 kts 152°
2026-05-05 09:34 55.57353 10.66403 18927 ft 273 kts 137°
2026-05-05 09:34 55.56210 10.69111 18931 ft 276 kts 130°
2026-05-05 09:34 55.55128 10.71927 18921 ft 277 kts 130°
2026-05-05 09:34 55.54028 10.74719 18930 ft 277 kts 131°
2026-05-05 09:35 55.52874 10.77442 18928 ft 277 kts 133°
2026-05-05 09:35 55.50521 10.82788 18929 ft 278 kts 133°
2026-05-05 09:35 55.49340 10.85499 18926 ft 278 kts 133°
2026-05-05 09:36 55.48160 10.88206 18930 ft 278 kts 133°
2026-05-05 09:36 55.46978 10.90911 18931 ft 278 kts 133°
2026-05-05 09:36 55.45794 10.93617 18933 ft 279 kts 133°
2026-05-05 09:36 55.44609 10.96326 18935 ft 279 kts 133°
2026-05-05 09:37 55.43424 10.99029 18932 ft 279 kts 133°
2026-05-05 09:37 55.42238 11.01732 18936 ft 279 kts 133°
2026-05-05 09:37 55.41051 11.04435 18936 ft 279 kts 133°
2026-05-05 09:37 55.39861 11.07143 18939 ft 279 kts 133°
2026-05-05 09:38 55.38688 11.09808 18941 ft 279 kts 133°
2026-05-05 09:38 55.37498 11.12505 18943 ft 279 kts 133°
2026-05-05 09:38 55.36309 11.15197 18942 ft 279 kts 134°
2026-05-05 09:38 55.35118 11.17897 18945 ft 279 kts 133°
2026-05-05 09:39 55.33926 11.20594 18945 ft 279 kts 133°
2026-05-05 09:39 55.32736 11.23282 18947 ft 279 kts 134°
2026-05-05 09:39 55.31540 11.25980 18947 ft 279 kts 134°
2026-05-05 09:39 55.30344 11.28676 18942 ft 280 kts 134°
2026-05-05 09:40 55.29150 11.31367 18935 ft 280 kts 134°
2026-05-05 09:40 55.27952 11.34060 18936 ft 280 kts 134°
2026-05-05 09:40 55.26755 11.36751 18937 ft 279 kts 134°
2026-05-05 09:40 55.25557 11.39441 18934 ft 279 kts 134°
2026-05-05 09:41 55.24361 11.42123 18935 ft 279 kts 134°
2026-05-05 09:41 55.23164 11.44801 18933 ft 279 kts 134°
2026-05-05 09:41 55.21980 11.47449 18935 ft 279 kts 134°
2026-05-05 09:41 55.20783 11.50124 18937 ft 279 kts 134°
2026-05-05 09:42 55.19585 11.52798 18935 ft 279 kts 134°
2026-05-05 09:42 55.18385 11.55474 18932 ft 279 kts 134°
2026-05-05 09:42 55.17187 11.58141 18933 ft 279 kts 134°
2026-05-05 09:42 55.15989 11.60809 18934 ft 278 kts 134°
2026-05-05 09:43 55.14793 11.63467 18939 ft 278 kts 134°
2026-05-05 09:43 55.13597 11.66122 18935 ft 278 kts 134°
2026-05-05 09:43 55.12397 11.68778 18939 ft 278 kts 134°
2026-05-05 09:43 55.11206 11.71432 18941 ft 278 kts 133°
2026-05-05 09:44 55.10342 11.74487 18942 ft 285 kts 112°
2026-05-05 09:44 55.09832 11.77840 18934 ft 286 kts 107°
2026-05-05 09:44 55.09386 11.81226 18934 ft 287 kts 107°
2026-05-05 09:44 55.08919 11.84611 18934 ft 286 kts 109°
2026-05-05 09:45 55.08395 11.87959 18931 ft 286 kts 110°
2026-05-05 09:45 55.07839 11.91293 18938 ft 286 kts 110°
2026-05-05 09:45 55.07291 11.94639 18941 ft 287 kts 110°
2026-05-05 09:45 55.06753 11.97948 18926 ft 287 kts 110°
2026-05-05 09:46 55.06205 12.01311 18881 ft 289 kts 110°
2026-05-05 09:46 55.05652 12.04699 18836 ft 290 kts 110°
2026-05-05 09:46 55.05096 12.08088 18825 ft 290 kts 110°
2026-05-05 09:46 55.04539 12.11478 18818 ft 290 kts 110°
2026-05-05 09:47 55.03985 12.14855 18805 ft 290 kts 110°
2026-05-05 09:47 55.03428 12.18230 18806 ft 289 kts 110°
2026-05-05 09:47 55.02872 12.21599 18806 ft 288 kts 110°
2026-05-05 09:47 55.02316 12.24952 18804 ft 288 kts 110°
2026-05-05 09:48 55.01762 12.28303 18806 ft 287 kts 110°
2026-05-05 09:48 55.01206 12.31644 18808 ft 287 kts 110°
2026-05-05 09:48 55.00658 12.34950 18804 ft 287 kts 110°
2026-05-05 09:48 55.00085 12.38270 18805 ft 284 kts 115°
2026-05-05 09:49 54.99249 12.41358 18808 ft 281 kts 124°
2026-05-05 09:49 54.98274 12.44304 18798 ft 281 kts 126°
2026-05-05 09:49 54.97289 12.47259 18776 ft 282 kts 125°
2026-05-05 09:49 54.96342 12.50252 18788 ft 282 kts 123°
2026-05-05 09:50 54.95425 12.53276 18787 ft 283 kts 123°
2026-05-05 09:50 54.94505 12.56308 18760 ft 284 kts 123°
2026-05-05 09:50 54.93891 12.58324 18667 ft 287 kts 123°
2026-05-05 09:50 54.92957 12.61382 18718 ft 283 kts 123°
2026-05-05 09:51 54.92039 12.64391 18810 ft 279 kts 123°
2026-05-05 09:51 54.90862 12.68331 18898 ft 276 kts 122°
2026-05-05 09:51 54.90267 12.70330 18922 ft 275 kts 122°
2026-05-05 09:51 54.89372 12.73268 18940 ft 275 kts 123°
2026-05-05 09:52 54.88478 12.76171 18947 ft 275 kts 123°
2026-05-05 09:52 54.87496 12.78993 18950 ft 271 kts 133°
2026-05-05 09:52 54.86253 12.81424 18951 ft 269 kts 140°
2026-05-05 09:52 54.84932 12.83723 18955 ft 269 kts 141°
2026-05-05 09:53 54.83611 12.86021 18958 ft 270 kts 140°
2026-05-05 09:53 54.82307 12.88372 18957 ft 270 kts 139°
2026-05-05 09:53 54.81018 12.90757 18952 ft 270 kts 138°
2026-05-05 09:53 54.79744 12.93151 18955 ft 270 kts 138°
2026-05-05 09:54 54.78473 12.95556 18954 ft 270 kts 138°
2026-05-05 09:54 54.77209 12.97968 18950 ft 270 kts 138°
2026-05-05 09:54 54.75935 13.00366 18951 ft 270 kts 139°
2026-05-05 09:54 54.74675 13.02715 18949 ft 269 kts 139°
2026-05-05 09:55 54.73401 13.05086 18949 ft 269 kts 139°
2026-05-05 09:55 54.72109 13.07476 18951 ft 268 kts 139°
2026-05-05 09:55 54.70851 13.09805 18948 ft 268 kts 139°
2026-05-05 09:55 54.69580 13.12163 18950 ft 267 kts 139°
2026-05-05 09:56 54.68312 13.14505 18949 ft 267 kts 139°
2026-05-05 09:56 54.67046 13.16846 18951 ft 266 kts 139°
2026-05-05 09:56 54.65777 13.19188 18953 ft 266 kts 139°
2026-05-05 09:56 54.64517 13.21514 18949 ft 265 kts 139°
2026-05-05 09:57 54.63251 13.23847 18947 ft 265 kts 139°
2026-05-05 09:57 54.61996 13.26164 18946 ft 264 kts 139°
2026-05-05 09:57 54.60742 13.28474 18948 ft 264 kts 140°
2026-05-05 09:57 54.59431 13.30544 18952 ft 254 kts 153°
2026-05-05 09:58 54.57896 13.32016 18946 ft 251 kts 160°
2026-05-05 09:58 54.56315 13.33282 18946 ft 251 kts 162°
2026-05-05 09:58 54.54729 13.34532 18946 ft 251 kts 161°
2026-05-05 09:58 54.53150 13.35828 18951 ft 251 kts 160°
2026-05-05 09:59 54.51587 13.37182 18948 ft 251 kts 159°
2026-05-05 09:59 54.50025 13.38544 18942 ft 252 kts 159°
2026-05-05 09:59 54.48470 13.39919 18944 ft 251 kts 159°
2026-05-05 09:59 54.46913 13.41289 18943 ft 251 kts 159°
2026-05-05 10:00 54.45361 13.42664 18943 ft 251 kts 159°
2026-05-05 10:00 54.43801 13.44021 18945 ft 251 kts 160°
2026-05-05 10:00 54.42224 13.45377 18944 ft 256 kts 160°
2026-05-05 10:00 54.40614 13.46738 18946 ft 260 kts 160°
2026-05-05 10:01 54.38984 13.48101 18950 ft 259 kts 160°
2026-05-05 10:01 54.37379 13.49451 18944 ft 255 kts 160°
2026-05-05 10:01 54.35801 13.50784 18943 ft 251 kts 160°
2026-05-05 10:01 54.34242 13.52107 18941 ft 249 kts 160°
2026-05-05 10:02 54.32715 13.53405 18940 ft 247 kts 160°
2026-05-05 10:02 54.31178 13.54712 18939 ft 246 kts 160°
2026-05-05 10:02 54.29653 13.56010 18940 ft 245 kts 160°
2026-05-05 10:02 54.28127 13.57309 18934 ft 244 kts 160°
2026-05-05 10:03 54.26609 13.58607 18938 ft 243 kts 160°
2026-05-05 10:03 54.25097 13.59903 18938 ft 242 kts 160°
2026-05-05 10:03 54.23591 13.61194 18937 ft 242 kts 160°
2026-05-05 10:03 54.22085 13.62484 18937 ft 242 kts 160°
2026-05-05 10:04 54.20580 13.63771 18939 ft 242 kts 160°
2026-05-05 10:04 54.19072 13.65059 18938 ft 242 kts 160°
2026-05-05 10:04 54.17572 13.66343 18936 ft 241 kts 160°
2026-05-05 10:04 54.16068 13.67630 18933 ft 241 kts 160°
2026-05-05 10:05 54.14586 13.68899 18935 ft 241 kts 160°
2026-05-05 10:05 54.13085 13.70180 18934 ft 241 kts 160°
2026-05-05 10:05 54.11583 13.71459 18935 ft 241 kts 160°
2026-05-05 10:05 54.10082 13.72737 18938 ft 241 kts 160°
2026-05-05 10:06 54.08642 13.73961 18938 ft 241 kts 160°
2026-05-05 10:06 54.07211 13.75177 18939 ft 242 kts 160°
2026-05-05 10:06 54.05704 13.76455 18936 ft 242 kts 160°
2026-05-05 10:06 54.04193 13.77732 18933 ft 242 kts 160°
2026-05-05 10:07 54.02682 13.79010 18936 ft 243 kts 160°
2026-05-05 10:07 54.01169 13.80288 18939 ft 243 kts 160°
2026-05-05 10:07 53.99650 13.81567 18937 ft 244 kts 160°
2026-05-05 10:07 53.98132 13.82847 18935 ft 244 kts 160°
2026-05-05 10:08 53.96605 13.84134 18939 ft 245 kts 160°
2026-05-05 10:08 53.95077 13.85421 18938 ft 245 kts 160°
2026-05-05 10:08 53.93564 13.86690 18926 ft 245 kts 160°
2026-05-05 10:08 53.92035 13.87976 18929 ft 245 kts 160°
2026-05-05 10:09 53.90509 13.89260 18928 ft 245 kts 160°
2026-05-05 10:09 53.88983 13.90543 18931 ft 244 kts 160°
2026-05-05 10:09 53.87459 13.91825 18928 ft 244 kts 160°
2026-05-05 10:09 53.85940 13.93103 18928 ft 244 kts 160°
2026-05-05 10:10 53.84422 13.94381 18928 ft 243 kts 160°
2026-05-05 10:10 53.82906 13.95657 18938 ft 243 kts 160°
2026-05-05 10:10 53.81387 13.96936 18938 ft 244 kts 160°
2026-05-05 10:10 53.79863 13.98218 18929 ft 245 kts 160°
2026-05-05 10:11 53.78342 13.99492 18929 ft 244 kts 160°
2026-05-05 10:11 53.76814 14.00773 18927 ft 244 kts 160°
2026-05-05 10:11 53.75311 14.02035 18932 ft 244 kts 160°
2026-05-05 10:11 53.73784 14.03317 18926 ft 244 kts 160°
2026-05-05 10:12 53.72264 14.04592 18929 ft 244 kts 160°
2026-05-05 10:12 53.70741 14.05865 18923 ft 244 kts 160°
2026-05-05 10:12 53.69221 14.07136 18925 ft 243 kts 160°
2026-05-05 10:12 53.67706 14.08403 18926 ft 243 kts 160°
2026-05-05 10:13 53.67642 14.08457 18929 ft 243 kts 160°
2026-05-05 10:13 53.67287 14.08754 18929 ft 243 kts 160°
2026-05-05 10:13 53.65774 14.10021 18929 ft 243 kts 160°
2026-05-05 10:14 53.64258 14.11287 18926 ft 242 kts 160°
2026-05-05 10:14 53.63952 14.11541 18924 ft 242 kts 160°
2026-05-05 10:14 53.63091 14.12259 18928 ft 242 kts 160°
2026-05-05 10:14 53.62781 14.12517 18923 ft 242 kts 160°
2026-05-05 10:15 53.61350 14.13706 18928 ft 242 kts 160°
2026-05-05 10:15 53.59788 14.15003 18928 ft 242 kts 160°
2026-05-05 10:15 53.58467 14.16098 18925 ft 242 kts 160°
2026-05-05 10:15 53.57063 14.17258 18924 ft 243 kts 160°
2026-05-05 10:16 53.55548 14.18513 18925 ft 243 kts 160°